Location: Astronomy Adventures Observing Site
(35.3995°N, 106.1279°W)
Time: 06:55:12
(UTC-06:00)

Hubble Space Telescope - Pass Details

Date: 29 January 2022
Orbit: 533 x 537 km, 28.5° (Epoch: 17 May)

Event Time Altitude Azimuth Distance (km) Brightness Sun altitude
Rises 19:26:27 0° 227° (SW) 2,657 5.1 -23.9°
Reaches altitude 10° 19:29:14 10° 208° (SSW) 1,771 3.8 -24.5°
Enters shadow 19:30:59 17° 184° (S) 1,404 2.9 -24.8°
